When you browse on this site, cookies collect data to enhance your experience and personalize the content and advertising you see.
Visit our Privacy Policy to learn more. By continuing to use the site, you agree to this use of cookies and data.
  • En España
  • Lista de países
  • Para 7 días
  • Temperatura del agua
  • El tiempo en el mapa
  • Informadores
  • user-avatar
    Iniciar sesión

    Tiempo cada hora Soma Bey

    Hoy, 28 Febrero, Viernes

    Tiempo Temperatura Precipitaciones Viento Presión Humedad
    00:00 +14°C° 0 mm 2 mps 751 mmHg 69%
    01:00 +14°C° 0 mm 2 mps 750 mmHg 68%
    02:00 +14°C° 0 mm 2 mps 750 mmHg 69%
    03:00 +14°C° 0 mm 2 mps 750 mmHg 66%
    04:00 +14°C° 0 mm 2 mps 750 mmHg 63%
    05:00 +13°C° 0 mm 2 mps 750 mmHg 61%
    06:00 +16°C° 0 mm 2 mps 750 mmHg 48%
    07:00 +20°C° 0 mm 2 mps 750 mmHg 35%
    08:00 +24°C° 0 mm 2 mps 751 mmHg 22%
    09:00 +25°C° 0 mm 2 mps 751 mmHg 19%
    10:00 +27°C° 0 mm 3 mps 751 mmHg 17%
    11:00 +29°C° 0 mm 3 mps 751 mmHg 15%
    12:00 +29°C° 0 mm 4 mps 750 mmHg 17%
    13:00 +29°C° 0 mm 4 mps 749 mmHg 18%
    14:00 +29°C° 0 mm 5 mps 748 mmHg 20%
    15:00 +28°C° 0 mm 4 mps 748 mmHg 23%
    16:00 +27°C° 0 mm 3 mps 748 mmHg 26%
    17:00 +26°C° 0 mm 2 mps 748 mmHg 29%
    18:00 +24°C° 0 mm 2 mps 749 mmHg 34%
    19:00 +20°C° 0 mm 2 mps 749 mmHg 40%
    20:00 +19°C° 0 mm 1 mps 749 mmHg 46%
    21:00 +18°C° 0 mm 1 mps 749 mmHg 45%
    22:00 +17°C° 0 mm 2 mps 749 mmHg 43%
    23:00 +17°C° 0 mm 2 mps 749 mmHg 42%

    Mañana, 29 Febrero, Sábado

    Tiempo Temperatura Precipitaciones Viento Presión Humedad
    00:00 +17°C° 0 mm 2 mps 749 mmHg 42%
    01:00 +17°C° 0 mm 2 mps 749 mmHg 41%
    02:00 +16°C° 0 mm 2 mps 748 mmHg 41%
    03:00 +16°C° 0 mm 3 mps 749 mmHg 41%
    04:00 +16°C° 0 mm 3 mps 749 mmHg 41%
    05:00 +16°C° 0 mm 3 mps 749 mmHg 42%
    06:00 +18°C° 0 mm 4 mps 749 mmHg 35%
    07:00 +21°C° 0 mm 4 mps 750 mmHg 28%
    08:00 +23°C° 0 mm 4 mps 750 mmHg 21%
    09:00 +25°C° 0 mm 5 mps 750 mmHg 21%
    10:00 +26°C° 0 mm 6 mps 750 mmHg 22%
    11:00 +28°C° 0 mm 7 mps 750 mmHg 22%
    12:00 +28°C° 0 mm 7 mps 750 mmHg 23%
    13:00 +28°C° 0 mm 7 mps 749 mmHg 24%
    14:00 +28°C° 0 mm 7 mps 748 mmHg 24%
    15:00 +27°C° 0 mm 7 mps 749 mmHg 28%
    16:00 +26°C° 0 mm 7 mps 749 mmHg 31%
    17:00 +24°C° 0 mm 7 mps 749 mmHg 34%
    18:00 +21°C° 0 mm 7 mps 749 mmHg 38%
    19:00 +18°C° 0 mm 7 mps 750 mmHg 43%
    20:00 +16°C° 0 mm 6 mps 750 mmHg 47%
    21:00 +15°C° 0 mm 6 mps 750 mmHg 46%
    22:00 +15°C° 0 mm 5 mps 751 mmHg 45%
    23:00 +14°C° 0 mm 5 mps 751 mmHg 45%

    Pasado mañana, 1 Marzo, Domingo

    Tiempo Temperatura Precipitaciones Viento Presión Humedad
    00:00 +14°C° 0 mm 5 mps 751 mmHg 46%
    01:00 +13°C° 0 mm 4 mps 750 mmHg 47%
    02:00 +13°C° 0 mm 4 mps 750 mmHg 48%
    03:00 +12°C° 0 mm 5 mps 750 mmHg 53%
    04:00 +10°C° 0 mm 5 mps 750 mmHg 58%
    05:00 +10°C° 0 mm 5 mps 750 mmHg 64%
    06:00 +12°C° 0 mm 5 mps 751 mmHg 58%
    07:00 +14°C° 0 mm 5 mps 751 mmHg 52%
    08:00 +16°C° 0 mm 5 mps 752 mmHg 46%
    09:00 +19°C° 0 mm 5 mps 752 mmHg 40%
    10:00 +21°C° 0 mm 5 mps 752 mmHg 33%
    11:00 +23°C° 0 mm 5 mps 752 mmHg 27%
    12:00 +23°C° 0 mm 6 mps 752 mmHg 26%
    13:00 +24°C° 0 mm 8 mps 751 mmHg 26%
    14:00 +24°C° 0 mm 9 mps 750 mmHg 25%
    15:00 +24°C° 0 mm 9 mps 750 mmHg 27%
    16:00 +23°C° 0 mm 9 mps 750 mmHg 29%
    17:00 +22°C° 0 mm 9 mps 750 mmHg 31%
    18:00 +20°C° 0 mm 8 mps 751 mmHg 34%
    19:00 +17°C° 0 mm 7 mps 751 mmHg 37%
    20:00 +15°C° 0 mm 6 mps 752 mmHg 40%
    21:00 +14°C° 0 mm 6 mps 752 mmHg 42%
    22:00 +13°C° 0 mm 5 mps 752 mmHg 44%
    23:00 +12°C° 0 mm 5 mps 752 mmHg 46%

    2 Marzo, Lunes

    Tiempo Temperatura Precipitaciones Viento Presión Humedad
    00:00 +11°C° 0 mm 4 mps 752 mmHg 46%
    01:00 +11°C° 0 mm 4 mps 751 mmHg 45%
    02:00 +10°C° 0 mm 4 mps 751 mmHg 45%
    03:00 +10°C° 0 mm 4 mps 751 mmHg 50%
    04:00 +10°C° 0 mm 4 mps 751 mmHg 55%
    05:00 +10°C° 0 mm 4 mps 751 mmHg 61%
    06:00 +12°C° 0 mm 4 mps 752 mmHg 51%
    07:00 +14°C° 0 mm 5 mps 752 mmHg 42%
    08:00 +17°C° 0 mm 5 mps 752 mmHg 32%
    09:00 +20°C° 0 mm 5 mps 752 mmHg 30%
    10:00 +22°C° 0 mm 6 mps 752 mmHg 27%
    11:00 +24°C° 0 mm 6 mps 752 mmHg 25%
    12:00 +24°C° 0 mm 6 mps 752 mmHg 27%
    13:00 +26°C° 0 mm 7 mps 751 mmHg 30%
    14:00 +26°C° 0 mm 7 mps 750 mmHg 32%
    15:00 +24°C° 0 mm 6 mps 750 mmHg 37%
    16:00 +23°C° 0 mm 6 mps 750 mmHg 43%
    17:00 +22°C° 0 mm 5 mps 750 mmHg 49%
    18:00 +20°C° 0 mm 5 mps 751 mmHg 56%
    19:00 +17°C° 0 mm 4 mps 751 mmHg 63%
    20:00 +14°C° 0 mm 3 mps 751 mmHg 71%
    21:00 +14°C° 0 mm 3 mps 752 mmHg 70%
    22:00 +13°C° 0 mm 3 mps 752 mmHg 70%
    23:00 +12°C° 0 mm 3 mps 752 mmHg 70%

    3 Marzo, Martes

    Tiempo Temperatura Precipitaciones Viento Presión Humedad
    00:00 +12°C° 0 mm 3 mps 751 mmHg 66%
    01:00 +12°C° 0 mm 3 mps 751 mmHg 62%
    02:00 +11°C° 0 mm 3 mps 751 mmHg 58%
    03:00 +11°C° 0 mm 4 mps 751 mmHg 58%
    04:00 +11°C° 0 mm 4 mps 751 mmHg 58%
    05:00 +11°C° 0 mm 4 mps 751 mmHg 57%
    06:00 +14°C° 0 mm 4 mps 751 mmHg 47%
    07:00 +17°C° 0 mm 4 mps 752 mmHg 37%
    08:00 +20°C° 0 mm 4 mps 752 mmHg 26%
    09:00 +22°C° 0 mm 5 mps 752 mmHg 24%
    10:00 +25°C° 0 mm 5 mps 752 mmHg 21%
    11:00 +27°C° 0 mm 5 mps 752 mmHg 18%
    12:00 +28°C° 0 mm 5 mps 751 mmHg 20%
    13:00 +28°C° 0 mm 5 mps 750 mmHg 21%
    14:00 +28°C° 0 mm 5 mps 750 mmHg 22%
    15:00 +27°C° 0 mm 4 mps 750 mmHg 24%
    16:00 +26°C° 0 mm 3 mps 750 mmHg 26%
    17:00 +25°C° 0 mm 2 mps 749 mmHg 29%
    18:00 +21°C° 0 mm 2 mps 750 mmHg 36%
    19:00 +19°C° 0 mm 2 mps 750 mmHg 43%
    20:00 +16°C° 0 mm 2 mps 750 mmHg 50%
    21:00 +15°C° 0 mm 2 mps 750 mmHg 48%
    22:00 +15°C° 0 mm 2 mps 750 mmHg 46%
    23:00 +15°C° 0 mm 2 mps 750 mmHg 44%

    4 Marzo, Miércoles

    Tiempo Temperatura Precipitaciones Viento Presión Humedad
    00:00 +14°C° 0 mm 2 mps 749 mmHg 49%
    01:00 +14°C° 0 mm 2 mps 749 mmHg 54%
    02:00 +13°C° 0 mm 2 mps 749 mmHg 58%
    03:00 +13°C° 0 mm 2 mps 749 mmHg 56%
    04:00 +13°C° 0 mm 2 mps 749 mmHg 54%
    05:00 +13°C° 0 mm 2 mps 749 mmHg 51%
    06:00 +17°C° 0 mm 2 mps 749 mmHg 38%
    07:00 +21°C° 0 mm 2 mps 749 mmHg 24%
    08:00 +25°C° 0 mm 2 mps 749 mmHg 10%
    09:00 +27°C° 0 mm 3 mps 749 mmHg 10%
    10:00 +29°C° 0 mm 3 mps 749 mmHg 10%
    11:00 +32°C° 0 mm 4 mps 749 mmHg 10%
    12:00 +32°C° 0 mm 4 mps 749 mmHg 11%
    13:00 +32°C° 0 mm 4 mps 748 mmHg 13%
    14:00 +32°C° 0 mm 4 mps 747 mmHg 14%
    15:00 +30°C° 0 mm 3 mps 747 mmHg 16%
    16:00 +29°C° 0 mm 2 mps 747 mmHg 19%
    17:00 +28°C° 0 mm 1 mps 747 mmHg 21%
    18:00 +25°C° 0 mm 1 mps 747 mmHg 25%
    19:00 +22°C° 0 mm 1 mps 748 mmHg 29%
    20:00 +19°C° 0 mm 1 mps 748 mmHg 33%
    21:00 +19°C° 0 mm 1 mps 748 mmHg 30%
    22:00 +20°C° 0 mm 1 mps 748 mmHg 27%
    23:00 +19°C° 0 mm 2 mps 748 mmHg 24%
    Mostrar más